Weather History for FBFT - July, 2013

Change the Weather History Date:

Friday, July 19, 2013

  Actual Average Record
Temperature  
Mean Temperature 58 °F -  
Max Temperature 74 °F 76 °F 82 °F (2000)
Min Temperature 43 °F 45 °F 28 °F (2012)
Degree Days  
Heating Degree Days 6    
Growing Degree Days 8 (Base 50)    
Moisture  
Dew Point 43 °F    
Average Humidity 56    
Maximum Humidity 93    
Minimum Humidity 27    
Precipitation  
Precipitation 0.00 in - - ()
Sea Level Pressure  
Sea Level Pressure 30.22 in    
Wind  
Wind Speed 4 mph ()    
Max Wind Speed 10 mph    
Max Gust Speed -    
Visibility 6.1 miles    
Events      
Averages and records for this station are not official NWS values.
T = Trace of Precipitation, MM = Missing Value Source: Averaged Metar Reports

Daily Weather History Graph

Daily Weather History Graph

Search for Another Location

Airport or City:

Trip Planner

Search our weather history database for the weather conditions in past years. The results will help you decide how hot, cold, wet, or windy it might be!

Date:

Astronomy

Jul. 19, 2013 Rise Set
Actual Time 6:46 AM CAT 5:46 PM CAT
Civil Twilight 6:22 AM CAT 6:10 PM CAT
Nautical Twilight 5:55 AM CAT 6:37 PM CAT
Astronomical Twilight 5:28 AM CAT 7:04 PM CAT
Moon 2:29 PM CAT (7/19) 3:03 AM CAT (7/19)
Length of Visible Light 11h 47m
Length of Day
11h 00m
Waxing Gibbous, 84% of the Moon is Illuminated
Jul 19
Waxing Gibbous
Jul 22
Full
Jul 29
Last Quarter
Aug 6
New
Aug 14
First Quarter

Hourly Weather History & Observations

Time (CAT) Temp. Windchill Dew Point Humidity Pressure Visibility Wind Dir Wind Speed Gust Speed Precip Events Conditions
12:00 AM 57.2 °F - 41.0 °F 55% 30.30 in - ESE 6.9 mph - N/A   Clear
1:00 AM 53.6 °F - 39.2 °F 58% 30.27 in - ESE 3.5 mph - N/A   Clear
2:00 AM 53 °F - 38 °F 44%  in 6 mi SSE 3.5 mph - -  
3:00 AM 51.8 °F - 37.4 °F 58% 30.24 in - Variable 2.3 mph - N/A   Clear
4:00 AM 50.0 °F - 35.6 °F 58% 30.24 in - Variable 2.3 mph - N/A   Clear
5:00 AM 46.4 °F 43.5 °F 41.0 °F 81% 30.27 in - SSE 5.8 mph - N/A   Clear
6:00 AM 42.8 °F 40.1 °F 39.2 °F 87% 30.27 in - SSE 4.6 mph - N/A   Clear
7:00 AM 42.8 °F 41.1 °F 41.0 °F 93% 30.27 in - SE 3.5 mph - N/A   Clear
8:00 AM 48 °F - 43 °F 77%  in 6 mi Calm Calm - -  
8:00 AM 48.2 °F - 42.8 °F 82% 30.30 in - Calm Calm - N/A   Clear
9:00 AM 59.0 °F - 48.2 °F 67% 30.30 in - East 10.4 mph - N/A   Clear
10:00 AM 62.6 °F - 50.0 °F 63% 30.30 in - ENE 10.4 mph - N/A   Clear
11:00 AM 66.2 °F - 50.0 °F 56% 30.27 in - NE 8.1 mph - N/A   Clear
12:00 PM 69.8 °F - 50.0 °F 49% 30.24 in 6.2 mi SE 9.2 mph - N/A   Partly Cloudy
1:00 PM 69.8 °F - 46.4 °F 43% 30.21 in 6.2 mi North 5.8 mph - N/A   Scattered Clouds
2:00 PM 72 °F - 45 °F 27%  in 6 mi SW 5.8 mph - -   Partly Cloudy
2:00 PM 71.6 °F - 44.6 °F 38% 30.15 in 6.2 mi SW 5.8 mph - N/A   Scattered Clouds
3:00 PM 73.4 °F - 46.4 °F 38% 30.15 in 6.2 mi NNW 4.6 mph - N/A   Partly Cloudy
4:00 PM 73.4 °F - 44.6 °F 36% 30.12 in - SSE 8.1 mph - N/A   Clear
5:00 PM 73.4 °F - 44.6 °F 36% 30.12 in - SW 4.6 mph - N/A   Clear
6:00 PM 68.0 °F - 44.6 °F 43% 30.15 in - SE 4.6 mph - N/A   Clear
7:00 PM 62.6 °F - 42.8 °F 48% 30.15 in - SE 5.8 mph - N/A   Clear
8:00 PM 59 °F - 42 °F 43%  in 6 mi ESE 4.6 mph - -   Partly Cloudy
8:00 PM 59.0 °F - 42.8 °F 55% 30.18 in - ESE 4.6 mph - N/A   Clear
9:00 PM 59.0 °F - 42.8 °F 55% 30.18 in - ESE 6.9 mph - N/A   Clear
10:00 PM 59.0 °F - 44.6 °F 59% 30.18 in - Variable 1.2 mph - N/A   Clear
11:00 PM 51.8 °F - 41.0 °F 67% 30.18 in - Variable 2.3 mph - N/A   Clear